Flag for Canada Weather past 2 weeks in Hamilton, Ontario, Canada

Now
59 °F

Passing clouds.


Feels Like: 59 °F
Forecast: 62 / 79 °F
Wind: 5 mph from Southwest

Location: Hamilton Airport

Current Time: Jul 26, 2014 at 4:17:28 AM

Latest Report: Jul 26, 2014 at 3:00 AM


Visibility: 15 mi

Pressure: 29.94 "Hg

Humidity: 88%

Dew point: 55 °F

Location of HamiltonLocation

Historic Weather in Hamilton — Graph

°F

Hamilton temperature yesterday

Maximum temperature yesterday: 75 °F (at 3:00 PM)
Minimum temperature yesterday: 50 °F (at 5:00 AM)
Average temperature yesterday: 63 °F

Past Weeks' High & Low Weather Summary

 TemperatureHumidityPressure
High82 °F (Jul 21, 4:00 PM)100% (Jul 15, 4:00 AM)30.25 "Hg (Jul 15, 4:00 AM)
Low48 °F (Jul 17, 5:00 AM)38% (Jul 17, 4:00 PM)29.66 "Hg (Jul 15, 10:00 AM)
Average66 °F75%30.01 "Hg
* Reported Jul 11 3:00 AM — Jul 26 3:00 AM, Hamilton, Weather by CustomWeather, © 2014

Note: Actual official high and low records may vary slightly from our data, if they occured in-between our weather recording intervals... More about our weather records

Advertising

Hamilton weather history for previous 24 hours

 ConditionsComfort  
Time TempWeatherWind HumidityBarometerVisibility
3:00 AM
Jul 26
59 °FPassing clouds.5 mph88%29.94 "Hg15 mi
2:00 AM59 °FPartly cloudy.5 mph88%29.95 "Hg15 mi
1:00 AM61 °FMostly cloudy.5 mph83%29.97 "Hg15 mi
12:00 AM59 °FPassing clouds.5 mph82%29.97 "Hg15 mi
11:00 PM
Jul 25
61 °FPassing clouds.3 mph77%29.97 "Hg15 mi
10:00 PM61 °FPassing clouds.5 mph83%29.98 "Hg15 mi
9:00 PM63 °FPartly sunny.5 mph77%29.97 "Hg15 mi
8:00 PM68 °FPartly sunny.9 mph64%29.97 "Hg10 mi
7:00 PM70 °FPartly sunny.15 mph60%29.97 "Hg8 mi
6:00 PM73 °FPartly sunny.15 mph53%29.98 "Hg10 mi
5:00 PM73 °FBroken clouds.10 mph50%29.98 "Hg8 mi
4:00 PM75 °FPartly sunny.14 mph47%29.99 "Hg10 mi
3:00 PM75 °FBroken clouds.10 mph47%30.01 "Hg8 mi
2:00 PM73 °FPassing clouds.7 mph44%30.01 "Hg15 mi
1:00 PM72 °FScattered clouds.5 mph38%30.03 "Hg15 mi
12:00 PM70 °FScattered clouds.10 mph57%30.06 "Hg15 mi
11:00 AM68 °FScattered clouds.10 mph60%30.07 "Hg15 mi
10:00 AM66 °FPassing clouds.7 mph68%30.07 "Hg15 mi
9:00 AM61 °FPassing clouds.8 mph72%30.08 "Hg15 mi
8:00 AM55 °FPassing clouds.7 mph88%30.08 "Hg15 mi
7:00 AM52 °FClear.6 mph94%30.06 "Hg15 mi
6:00 AM50 °FPassing clouds.3 mph94%30.06 "Hg15 mi
5:00 AM50 °FPassing clouds.3 mph94%30.03 "Hg15 mi
4:00 AM52 °FPassing clouds.3 mph94%30.03 "Hg15 mi
Weather by CustomWeather, © 2014

See weather overviewHow to use our weather pages